Location: Sweetwater (historical)
(38.4624°N, 119.1749°W)
Time: 12:40:26
(UTC+00:00)

TSX-5 - Pass Details

Date: 13 August 2020
Orbit: 402 x 1330 km, 68.9° (Epoch: 20 September)

Event Time Altitude Azimuth Distance (km) Brightness Sun altitude
Exits shadow 12:37:37 - 203° (SSW) 2,188 6.4 -6.7°
Reaches altitude 10° 12:39:16 10° 203° (SSW) 1,471 5.6 -6.4°
Maximum altitude 12:42:24 86° 113° (ESE) 408 3.2 -5.8°
Drops below altitude 10° 12:45:35 10° 26° (NNE) 1,489 6.9 -5.3°
Sets 12:47:42 0° 26° (NNE) 2,408 8.0 -4.9°
